This is the latest recevied weather packets stored in our database for station/object SV9TNF-1. If no packets are shown the sender has not sent any weather packets the latest 10 day(s).
| Time | Temp. | Humidity | Pressure | Rain* | Wind** | Luminosity | Snow |
|---|---|---|---|---|---|---|---|
| 1778102740 | 17.22° C | 71% | 1005.8 hPa | 0 mm | 0.45 m/s, 125° | - | - |
| 1778102440 | 17.22° C | 67% | 1005.8 hPa | 0 mm | 0.89 m/s, 128° | - | - |
| 1778102140 | 17.22° C | 64% | 1005.8 hPa | 0 mm | 0 m/s | - | - |
| 1778101840 | 17.22° C | 56% | 1005.8 hPa | 0 mm | 0 m/s | - | - |
| 1778101540 | 17.78° C | 53% | 1005.8 hPa | 0 mm | 0 m/s | - | - |
| 1778101245 | 17.78° C | 54% | 1005.8 hPa | 0 mm | 1.34 m/s, 129° | - | - |
| 1778100939 | 17.78° C | 52% | 1005.8 hPa | 0 mm | 0 m/s | - | - |
| 1778100639 | 17.78° C | 51% | 1005.8 hPa | 0 mm | 1.34 m/s, 123° | - | - |
| 1778100339 | 17.78° C | 54% | 1005.8 hPa | 0 mm | 1.34 m/s, 117° | - | - |
| 1778100039 | 17.78° C | 55% | 1005.8 hPa | 0 mm | 1.34 m/s, 129° | - | - |
| 1778099739 | 17.78° C | 54% | 1006.1 hPa | 0 mm | 0 m/s | - | - |
| 1778099439 | 17.78° C | 54% | 1006.1 hPa | 0 mm | 0.45 m/s, 140° | - | - |
| 1778099139 | 17.78° C | 52% | 1006.1 hPa | 0 mm | 0 m/s | - | - |
| 1778098839 | 18.33° C | 53% | 1006.1 hPa | 0 mm | 0 m/s | - | - |
| 1778098539 | 18.33° C | 52% | 1006.1 hPa | 0 mm | 0.89 m/s, 135° | - | - |
| 1778098239 | 18.33° C | 55% | 1006.1 hPa | 0 mm | 1.34 m/s, 113° | - | - |
| 1778097938 | 17.78° C | 56% | 1006.1 hPa | 0 mm | 1.34 m/s, 133° | - | - |
| 1778097639 | 17.78° C | 58% | 1006.1 hPa | 0 mm | 1.34 m/s, 125° | - | - |
| 1778097338 | 17.78° C | 65% | 1006.1 hPa | 0 mm | 0 m/s | - | - |
| 1778097039 | 17.22° C | 68% | 1006.1 hPa | 0 mm | 0 m/s | - | - |
| 1778096738 | 17.78° C | 72% | 1006.1 hPa | 0 mm | 0.45 m/s, 133° | - | - |
| 1778096438 | 17.78° C | 72% | 1006.1 hPa | 0 mm | 0 m/s | - | - |
| 1778096138 | 17.78° C | 72% | 1006.1 hPa | 0 mm | 0.45 m/s, 127° | - | - |
| 1778095838 | 17.78° C | 72% | 1006.1 hPa | 0 mm | 0.89 m/s, 127° | - | - |
| 1778095538 | 17.78° C | 72% | 1006.1 hPa | 0 mm | 0 m/s | - | - |
* Rain latest hour (hover to see other rain measurements)
** Current wind speed in m/s (hover to see current wind gust speed)